GW1601 Weather Reports


time (UTC)temp
F
wind
direction
speed
knots
gust
knots
rain 1hr
in
rain 24hr
in
rain mn
in
humidity
%
barometer
mb
20260508111542 37 49 0.0 1.7 0.00 0.00 0.00 99 989.8
20260508110922 37 48 0.0 1.7 0.00 0.00 0.00 99 989.5
20260508110326 37 38 0.9 1.7 0.00 0.00 0.00 99 989.8
20260508105142 36 167 0.0 1.7 0.00 0.00 0.00 99 989.5
20260508103936 34 142 0.9 2.6 0.00 0.00 0.00 99 989.8
20260508103338 34 190 0.0 1.7 0.00 0.00 0.00 99 989.5
20260508102715 34 216 1.7 1.7 0.00 0.00 0.00 99 989.5
20260508102115 34 211 0.9 1.7 0.00 0.00 0.00 99 989.5
20260508101512 35 173 0.9 1.7 0.00 0.00 0.00 99 989.1
20260508100938 34 183 0.9 1.7 0.00 0.00 0.00 99 989.1
20260508100331 35 163 0.9 1.7 0.00 0.00 0.00 99 989.5
20260508095748 35 211 0.9 2.6 0.00 0.00 0.00 99 989.1
20260508095130 35 147 0.9 2.6 0.00 0.00 0.00 99 989.1
20260508094522 35 161 1.7 1.7 0.00 0.00 0.00 99 989.1
20260508093943 35 221 0.9 1.7 0.00 0.00 0.00 99 988.8
20260508092722 36 175 0.0 1.7 0.00 0.00 0.00 99 989.1
20260508092142 36 145 0.9 1.7 0.00 0.00 0.00 99 989.1
20260508091528 36 189 0.9 2.6 0.00 0.00 0.00 99 989.1
20260508090932 36 210 0.0 1.7 0.00 0.00 0.00 99 989.1
20260508085139 37 145 1.7 1.7 0.00 0.00 0.00 99 989.1
20260508084547 37 157 0.9 2.6 0.00 0.00 0.00 99 989.1
20260508083912 37 119 0.0 1.7 0.00 0.00 0.00 99 989.1
20260508083313 38 114 0.0 1.7 0.00 0.00 0.00 99 989.1
20260508082735 38 113 0.0 1.7 0.00 0.00 0.00 99 989.1
20260508082150 38 43 0.0 1.7 0.00 0.00 0.00 99 989.1
20260508081537 37 147 0.9 1.7 0.00 0.00 0.00 99 989.1
20260508080328 37 54 0.0 1.7 0.00 0.00 0.00 99 989.1
20260508075731 37 123 0.0 1.7 0.00 0.00 0.00 99 989.1
20260508075120 37 125 1.7 2.6 0.00 0.00 0.00 99 989.5
20260508074529 36 139 0.9 2.6 0.00 0.00 0.00 99 989.1
20260508073327 36 111 0.0 1.7 0.00 0.00 0.00 99 989.1
20260508072733 36 308 0.0 1.7 0.00 0.00 0.00 99 989.1
20260508072115 35 43 0.0 1.7 0.00 0.00 0.00 99 989.1
20260508071537 35 209 0.0 2.6 0.00 0.00 0.00 99 989.5
20260508070951 35 263 0.0 1.7 0.00 0.00 0.00 99 989.1
20260508070338 35 196 0.0 1.7 0.00 0.00 0.00 99 989.1
20260508065738 35 164 0.0 2.6 0.00 0.00 0.00 99 989.1
20260508065133 35 172 1.7 3.5 0.00 0.00 0.00 99 989.1
20260508064520 35 33 0.9 3.5 0.00 0.00 0.00 99 989.1
20260508063925 35 232 0.9 1.7 0.00 0.00 0.00 99 989.1
20260508063318 35 162 1.7 3.5 0.00 0.00 0.00 99 989.1
20260508062742 35 172 0.9 1.7 0.00 0.00 0.00 99 989.1
20260508062146 35 125 1.7 1.7 0.00 0.00 0.00 99 989.5
20260508061530 36 221 1.7 2.6 0.00 0.00 0.00 99 989.1
20260508060909 35 215 0.0 2.6 0.00 0.00 0.00 99 989.5
20260508060341 35 191 0.9 3.5 0.00 0.00 0.00 99 989.1
20260508055751 36 120 0.0 2.6 0.00 0.00 0.00 99 989.5
20260508055141 36 196 0.0 1.7 0.00 0.00 0.00 99 989.5
20260508054544 36 162 0.0 2.6 0.00 0.00 0.00 99 989.5
20260508052738 36 205 0.9 1.7 0.00 0.00 0.00 99 989.5
20260508052132 36 167 0.9 1.7 0.00 0.00 0.00 99 989.5
20260508051526 36 163 0.9 1.7 0.00 0.00 0.00 98 989.8
20260508050945 37 174 0.0 1.7 0.00 0.00 0.00 99 989.8
20260508050309 36 183 0.9 1.7 0.00 0.00 0.00 98 989.8
20260508045724 37 182 0.0 1.7 0.00 0.00 0.00 98 989.5
20260508045128 37 162 0.9 1.7 0.00 0.00 0.00 98 989.8
20260508044542 37 189 0.9 1.7 0.00 0.00 0.00 98 989.5
20260508043936 37 210 1.7 1.7 0.00 0.00 0.00 98 989.5
20260508043347 37 205 0.9 1.7 0.00 0.00 0.00 98 989.5
20260508042723 37 152 0.0 1.7 0.00 0.00 0.00 97 989.5
20260508042141 38 103 0.0 1.7 0.00 0.00 0.00 97 989.5
20260508041532 37 183 0.9 1.7 0.00 0.00 0.00 97 989.5
20260508040318 38 178 0.9 1.7 0.00 0.00 0.00 96 989.5
20260508035120 38 127 0.0 1.7 0.00 0.00 0.00 96 989.5
20260508034526 38 164 0.9 1.7 0.00 0.00 0.00 96 989.5
20260508033916 38 166 0.0 1.7 0.00 0.00 0.00 96 989.5
20260508033321 39 130 0.0 1.7 0.00 0.00 0.00 95 989.5
20260508032734 39 176 0.0 1.7 0.00 0.00 0.00 95 989.5
20260508032147 39 200 0.9 1.7 0.00 0.00 0.00 94 989.5
20260508031526 39 202 0.0 1.7 0.00 0.00 0.00 94 989.5
20260508030931 39 175 0.9 1.7 0.00 0.00 0.00 94 989.5
20260508030311 40 170 0.0 1.7 0.00 0.00 0.00 93 989.5
20260508025719 40 100 0.0 1.7 0.00 0.00 0.00 92 989.5
20260508025114 40 202 0.9 1.7 0.00 0.00 0.00 92 989.8
20260508024525 40 205 0.9 1.7 0.00 0.00 0.00 91 989.5
20260508023946 41 189 0.0 1.7 0.00 0.00 0.00 91 989.5
20260508023341 41 180 0.9 1.7 0.00 0.00 0.00 89 989.5
20260508022723 41 214 0.9 1.7 0.00 0.00 0.00 89 989.5
20260508021515 42 176 0.0 1.7 0.00 0.00 0.00 87 989.5
20260508020945 42 180 0.0 1.7 0.00 0.00 0.00 86 989.5
20260508020349 42 206 0.0 1.7 0.00 0.00 0.00 85 989.5
20260508015738 43 210 0.9 1.7 0.00 0.00 0.00 83 989.5
20260508015145 43 177 0.0 1.7 0.00 0.00 0.00 82 989.5
20260508014517 43 195 0.0 1.7 0.00 0.00 0.00 81 989.5
20260508012725 45 204 0.9 1.7 0.00 0.00 0.00 79 989.1
20260508011528 45 217 1.7 1.7 0.00 0.00 0.00 75 988.8
20260508010935 46 189 0.0 1.7 0.00 0.00 0.00 73 988.8
20260508010349 46 200 0.9 1.7 0.00 0.00 0.00 73 988.4
20260508005736 47 193 0.0 1.7 0.00 0.00 0.00 71 988.4
20260508003908 49 193 0.0 1.7 0.00 0.00 0.00 68 988.4
20260508003340 50 202 0.9 1.7 0.00 0.00 0.00 66 988.4
20260508002734 50 206 0.9 2.6 0.00 0.00 0.00 62 988.4
20260508002110 51 204 1.7 2.6 0.00 0.00 0.00 60 988.4
20260508001532 52 203 1.7 1.7 0.00 0.00 0.00 59 988.4
20260508000949 52 197 1.7 1.7 0.00 0.00 0.00 57 988.4
20260508000335 54 218 0.0 1.7 0.00 0.00 0.00 53 988.1
20260507235747 54 23 0.9 1.7 0.00 0.00 0.00 49 988.4
20260507235119 55 54 1.7 2.6 0.00 0.00 0.00 50 988.4
20260507234551 55 349 0.9 2.6 0.00 0.00 0.00 49 988.1
20260507233938 56 174 1.7 2.6 0.00 0.00 0.00 46 988.1
20260507233347 56 156 1.7 5.2 0.00 0.00 0.00 46 988.1
20260507231535 57 28 2.6 7.8 0.00 0.00 0.00 45 988.1
20260507225744 58 237 0.9 8.7 0.00 0.00 0.00 45 988.1
20260507225120 58 193 1.7 5.2 0.00 0.00 0.00 45 987.8
20260507224527 59 226 2.6 6.1 0.00 0.00 0.00 42 988.1
20260507223918 59 309 0.0 7.0 0.00 0.00 0.00 41 987.8
20260507223338 60 73 1.7 8.7 0.00 0.00 0.00 41 987.8
20260507222719 61 347 0.0 10.4 0.00 0.00 0.00 39 988.1
20260507221516 60 149 0.9 6.1 0.00 0.00 0.00 41 988.1
20260507220312 60 205 1.7 7.8 0.00 0.00 0.00 44 987.8
20260507215738 59 154 0.9 8.7 0.00 0.00 0.00 44 987.8
20260507215144 61 324 3.5 5.2 0.00 0.00 0.00 41 987.8
20260507213944 62 253 4.3 9.6 0.00 0.00 0.00 40 987.8
20260507212737 63 333 2.6 8.7 0.00 0.00 0.00 39 987.4
20260507211532 61 352 5.2 11.3 0.00 0.00 0.00 41 987.1
20260507210928 62 9 0.9 5.2 0.00 0.00 0.00 41 986.7
20260507210344 63 302 2.6 4.3 0.00 0.00 0.00 39 986.7
20260507204547 63 282 2.6 8.7 0.00 0.00 0.00 39 986.7
20260507202737 63 221 5.2 6.1 0.00 0.00 0.00 35 987.1
20260507202152 61 340 3.5 7.8 0.00 0.00 0.00 37 987.1
20260507201538 64 216 1.7 9.6 0.00 0.00 0.00 37 987.1
20260507200938 63 203 2.6 11.3 0.00 0.00 0.00 34 986.7
20260507195752 64 37 1.7 7.8 0.00 0.00 0.00 37 987.1
20260507195151 63 0 0.9 6.1 0.00 0.00 0.00 40 987.1
20260507194514 64 255 0.9 11.3 0.00 0.00 0.00 36 987.1
20260507193951 64 16 4.3 11.3 0.00 0.00 0.00 36 987.1
20260507192732 62 205 1.7 4.3 0.00 0.00 0.00 42 987.4
20260507192146 61 66 0.9 7.8 0.00 0.00 0.00 38 987.4
20260507191535 62 341 2.6 9.6 0.00 0.00 0.00 39 987.1
20260507190936 62 33 1.7 11.3 0.00 0.00 0.00 40 987.4
20260507185724 63 189 2.6 7.0 0.00 0.00 0.00 38 987.4
20260507185150 63 223 1.7 9.6 0.00 0.00 0.00 38 987.8
20260507184549 63 35 2.6 12.2 0.00 0.00 0.00 39 987.8
20260507183952 64 217 0.9 8.7 0.00 0.00 0.00 38 987.4
20260507183308 63 224 12.2 12.2 0.00 0.00 0.00 39 987.4
20260507182714 63 231 3.5 8.7 0.00 0.00 0.00 40 987.8
20260507182150 63 226 2.6 7.0 0.00 0.00 0.00 39 987.1
20260507181510 63 214 3.5 17.4 0.00 0.00 0.00 38 987.4
20260507180928 64 232 2.6 10.4 0.00 0.00 0.00 38 987.4
20260507180324 63 149 4.3 8.7 0.00 0.00 0.00 40 987.4
20260507174520 63 209 4.3 9.6 0.00 0.00 0.00 39 987.4
20260507173945 63 27 2.6 4.3 0.00 0.00 0.00 43 987.8
20260507172732 63 210 1.7 4.3 0.00 0.00 0.00 44 987.8
20260507172129 62 241 1.7 7.8 0.00 0.00 0.00 46 987.8
20260507170911 62 28 1.7 9.6 0.00 0.00 0.00 46 987.8
20260507170321 61 249 2.6 7.8 0.00 0.00 0.00 42 987.8
20260507165750 62 359 3.5 7.8 0.00 0.00 0.00 41 988.1
20260507165135 62 200 3.5 7.8 0.00 0.00 0.00 41 988.1
20260507163923 63 232 4.3 8.7 0.00 0.00 0.00 39 988.1
20260507162722 62 222 3.5 6.1 0.00 0.00 0.00 45 988.1
20260507162152 59 338 0.9 5.2 0.00 0.00 0.00 47 988.1
20260507161555 61 230 1.7 6.1 0.00 0.00 0.00 44 988.1
20260507160923 61 325 2.6 10.4 0.00 0.00 0.00 44 988.1
20260507160346 61 156 1.7 10.4 0.00 0.00 0.00 42 988.4
20260507155731 61 209 3.5 5.2 0.00 0.00 0.00 42 988.1
20260507155123 61 232 6.1 10.4 0.00 0.00 0.00 43 988.4
20260507154519 60 276 1.7 6.1 0.00 0.00 0.00 46 988.4
20260507153911 62 126 0.9 7.8 0.00 0.00 0.00 51 988.4
20260507153316 62 234 1.7 5.2 0.00 0.00 0.00 45 988.4
20260507152750 61 130 0.0 7.8 0.00 0.00 0.00 44 988.1
20260507151534 59 262 1.7 2.6 0.00 0.00 0.00 46 988.1
20260507150347 60 142 1.7 7.0 0.00 0.00 0.00 47 988.4
20260507145715 59 190 3.5 7.0 0.00 0.00 0.00 43 988.4
20260507145111 60 13 1.7 7.0 0.00 0.00 0.00 47 988.4
20260507144515 60 348 1.7 4.3 0.00 0.00 0.00 47 988.8
20260507143939 58 351 0.9 4.3 0.00 0.00 0.00 49 988.4
20260507143320 58 346 2.6 6.1 0.00 0.00 0.00 49 988.4
20260507142123 59 238 0.9 7.0 0.00 0.00 0.00 51 988.4
20260507141517 58 143 1.7 5.2 0.00 0.00 0.00 49 988.4
20260507140926 58 281 1.7 6.1 0.00 0.00 0.00 53 988.4
20260507140342 57 258 0.9 6.1 0.00 0.00 0.00 55 988.4
20260507135143 55 320 1.7 4.3 0.00 0.00 0.00 60 988.8
20260507134519 55 11 1.7 3.5 0.00 0.00 0.00 61 988.8
20260507133319 54 346 0.0 5.2 0.00 0.00 0.00 68 989.1
20260507132743 53 341 0.9 6.1 0.00 0.00 0.00 69 989.1
20260507132122 54 300 1.7 4.3 0.00 0.00 0.00 69 989.1
20260507130911 52 87 1.7 2.6 0.00 0.00 0.00 77 989.1
20260507130311 50 42 0.0 5.2 0.00 0.00 0.00 78 989.5
20260507124550 49 48 2.6 4.3 0.00 0.00 0.00 87 989.5
20260507123943 48 338 2.6 6.1 0.00 0.00 0.00 89 989.5
20260507123343 47 345 1.7 2.6 0.00 0.00 0.00 92 989.5
20260507122748 45 42 2.6 3.5 0.00 0.00 0.00 95 989.5
20260507122127 44 353 0.9 3.5 0.00 0.00 0.00 97 989.5
20260507120340 42 49 2.6 3.5 0.00 0.00 0.00 99 989.5
20260507115712 40 16 1.7 3.5 0.00 0.00 0.00 99 989.1
20260507115146 40 32 1.7 3.5 0.00 0.00 0.00 99 989.1
20260507114527 39 5 0.0 2.6 0.00 0.00 0.00 99 989.5
20260507113916 39 348 1.7 2.6 0.00 0.00 0.00 99 989.5
20260507113326 39 129 0.0 2.6 0.00 0.00 0.00 99 989.5
20260507112752 38 6 0.9 1.7 0.00 0.00 0.00 99 989.1